모두
Coonamble Airport (Coonamble, New South Wales) CNB 기상
|
Coonamble, New South Wales (CNB / YCNM)
맑은 하늘
가벼운 바람 |
|
14 °C |
There is no TAF data available at CNB or any nearby airports.
최근 CNB METAR 이력
| Date | Time (AEST) | Flight Rules | Wind Dir. | Speed | Type | Height AGL (ft) | Visibility | Temp (°C) | Temp (°F) | Dew Point (°C) | Dew Point (°F) | Rel. Humid. | Pressure | Density Altitude | Remarks |
|---|---|---|---|---|---|---|---|---|---|---|---|---|---|---|---|
| 05-5월 | 20:00 | n/a | 200° | 7 kt | Missing | 14° | 57° | 8° | 46° | 67% | 1021 mb | 254 ft | |||
| 05-5월 | 19:00 | n/a | 200° | 8 kt | Missing | 16° | 60° | 8° | 46° | 59% | 1020 mb | 523 ft | |||
| 05-5월 | 18:00 | n/a | 190° | 6 kt | Missing | 16° | 60° | 9° | 48° | 63% | 1020 mb | 523 ft | |||
| 05-5월 | 17:00 | n/a | 190° | 9 kt | Missing | 20° | 68° | 8° | 46° | 46% | 1019 mb | 1,033 ft | |||
| 05-5월 | 16:00 | n/a | 190° | 12 kt | Missing | 21° | 69° | 8° | 46° | 43% | 1019 mb | 1,153 ft | |||
| 05-5월 | 15:00 | n/a | 190° | 12 kt | Missing | 21° | 69° | 7° | 44° | 40% | 1019 mb | 1,153 ft | |||
| 05-5월 | 14:00 | n/a | 180° | 14 kt | Missing | 20° | 68° | 7° | 44° | 43% | 1018 mb | 1,062 ft | |||
| 05-5월 | 13:00 | n/a | 190° | 13 kt | Missing | 21° | 69° | 8° | 46° | 43% | 1019 mb | 1,153 ft | |||
| 05-5월 | 12:00 | n/a | 190° | 12 kt | Missing | 20° | 68° | 8° | 46° | 46% | 1020 mb | 1,003 ft | |||
| 05-5월 | 11:00 | n/a | 170° | 11 kt | Missing | 19° | 66° | 8° | 46° | 49% | 1020 mb | 883 ft | |||
| 05-5월 | 10:00 | n/a | 170° | 9 kt | Missing | 16° | 60° | 12° | 53° | 77% | 1021 mb | 494 ft | |||
| 05-5월 | 09:00 | n/a | 170° | 9 kt | Missing | 15° | 59° | 12° | 53° | 82% | 1021 mb | 374 ft | |||
| 05-5월 | 08:00 | n/a | 170° | 6 kt | Missing | 13° | 55° | 12° | 53° | 94% | 1020 mb | 163 ft | |||
| 05-5월 | 07:00 | n/a | 190° | 6 kt | Missing | 12° | 53° | 12° | 53° | 100% | 1019 mb | 73 ft | |||
| 05-5월 | 06:00 | n/a | 210° | 6 kt | Missing | 13° | 55° | 12° | 53° | 94% | 1019 mb | 193 ft | |||
| 05-5월 | 05:00 | n/a | 220° | 5 kt | Missing | 13° | 55° | 12° | 53° | 94% | 1019 mb | 193 ft | |||
| 05-5월 | 04:00 | n/a | 210° | 7 kt | Missing | 15° | 59° | 13° | 55° | 88% | 1018 mb | 462 ft | |||
| 05-5월 | 03:00 | n/a | 190° | 6 kt | Missing | 14° | 57° | 13° | 55° | 94% | 1018 mb | 342 ft | |||
| 05-5월 | 02:00 | n/a | 200° | 7 kt | Missing | 14° | 57° | 13° | 55° | 94% | 1018 mb | 342 ft | |||
| 05-5월 | 01:00 | n/a | 200° | 6 kt | Missing | 15° | 59° | 14° | 57° | 94% | 1018 mb | 462 ft | |||
| 05-5월 | 00:00 | n/a | 190° | 6 kt | Missing | 15° | 59° | 14° | 57° | 94% | 1018 mb | 462 ft | |||
| 04-5월 | 23:00 | n/a | 200° | 5 kt | Missing | 16° | 60° | 15° | 59° | 94% | 1018 mb | 582 ft | |||
| 04-5월 | 22:00 | n/a | 220° | 3 kt | Missing | 16° | 60° | 15° | 59° | 94% | 1018 mb | 582 ft | |||
| 04-5월 | 21:00 | n/a | 180° | 6 kt | Missing | 16° | 60° | 15° | 59° | 94% | 1018 mb | 582 ft |
로그인
| 귀하의 브라우저는 지원되지 않습니다.. 브라우저를 업그레이드하세요 |
